Location: Tarleton Observatory
(32.2162°N, 98.0976°W)
Time: 08:46:14
(UTC-05:00)

Daily predictions for brighter satellites

Satellite Brightness Start Highest point End
(mag) Time Altitude Azimuth Time Altitude Azimuth Time Altitude Azimuth
H-2A R/B 2.7 20:51:38 10° S 20:55:20 86° WSW 20:59:02 10° NNW
Tiangong 2 3.6 20:53:58 10° WNW 20:56:35 23° NNW 20:59:12 10° NE
Cosmos 1666 4.4 20:55:48 10° NE 20:58:09 16° ENE 21:00:30 10° ESE
Cosmos 1656 Rocket 4.0 20:58:57 10° N 21:04:15 49° ENE 21:09:36 10° SE
Cosmos 1939 Rocket 4.2 21:03:25 10° ESE 21:06:21 21° ENE 21:09:18 10° NNE
Helios 1A 3.8 21:08:54 10° SE 21:12:41 33° ENE 21:16:29 10° N
Meteor 2-4 Rocket 4.1 21:10:18 10° SSE 21:15:36 45° E 21:21:05 10° NNE
Cosmos 1346 2.7 21:13:24 10° S 21:16:07 65° E 21:18:52 10° NNE
ALOS 4.3 21:13:59 10° SSW 21:17:59 28° W 21:22:01 10° NW
Hubble Space Telescope 2.4 21:21:36 10° SSW 21:24:24 18° SSE 21:25:49 15° SE
ERS-1 Rocket 4.4 21:21:27 12° ESE 21:24:35 21° ENE 21:28:15 10° NNE
CZ-4B DEB 3.7 21:24:50 17° ESE 21:26:27 27° ENE 21:29:04 10° NNE
Cosmos 1943 Rocket 3.5 21:23:36 10° NW 21:28:41 37° WSW 21:33:43 10° S
CENTAUR R/B 3.2 21:22:43 10° NNW 21:30:52 85° ENE 21:38:42 13° SSE
COSMOS 2455 3.8 21:27:52 10° NW 21:33:33 45° WSW 21:39:12 10° S
Meteor 2-13 Rocket 4.5 21:29:12 10° N 21:35:12 64° E 21:41:05 11° SSE
Helios 1B rocket 2.4 21:31:48 10° NNE 21:35:56 89° E 21:40:04 10° SSW
Okean 1-7 Rocket 3.8 21:32:08 10° SSE 21:36:25 50° E 21:40:46 10° NNE
Cosmos 405 Rocket 3.5 21:32:57 10° SSW 21:36:36 52° W 21:40:20 10° N
Meteor 1-29 2.8 21:34:25 10° NNE 21:37:46 73° ESE 21:41:06 10° S
ISS -0.6 21:36:51 10° WNW 21:38:50 15° NNW 21:40:49 10° N
Cosmos 1238 Rocket 4.1 21:33:39 10° S 21:40:17 66° E 21:46:47 10° NNE
DNEPR-1 R/B 3.8 21:36:31 10° NNW 21:40:48 60° ENE 21:43:54 21° SE
SJ-11-01 4.3 21:39:17 15° SSE 21:43:09 69° ENE 21:47:50 10° N
Cosmos 374 Rocket 4.3 21:40:15 10° NNW 21:44:00 89° NE 21:46:43 21° SSE
Cosmos 1441 Rocket 3.1 21:40:19 10° S 21:44:02 89° W 21:47:47 10° N
OAO 2 Rocket 3.6 21:40:20 10° WNW 21:45:14 65° N 21:49:22 15° E
Cosmos 2327 Rocket 4.5 21:40:36 10° N 21:46:51 76° E 21:52:44 12° S
USA 186 3.5 21:45:11 10° SSW 21:48:03 30° W 21:50:53 10° NW
Aureole 1 Rocket 4.1 21:45:57 10° SW 21:49:04 33° WNW 21:51:52 10° N
Aureole 3 Rocket 4.1 21:42:55 10° SSW 21:49:38 68° W 21:54:23 10° N
ASTEX 1 3.6 21:47:38 20° SSE 21:50:54 53° E 21:55:40 10° N
CZ-3A R/B 1.3 21:44:48 10° SW 21:51:45 76° NW 21:54:05 10° NE
Cosmos 1025 Rocket 2.9 21:48:23 12° S 21:52:17 70° E 21:56:32 10° NNE
Meteor 1-23 Rocket 4.1 21:50:04 10° S 21:55:37 83° E 22:01:14 10° N
Okean 2 3.4 21:55:11 22° SSE 21:57:36 59° E 22:01:38 10° NNE
ASTRO E2 3.6 22:04:31 10° W 22:08:08 33° SSW 22:08:44 31° S
Cosmos 1624 Rocket 4.4 22:03:43 10° N 22:08:50 48° ENE 22:10:48 33° ESE
H-2A R/B 3.5 22:09:14 18° E 22:10:05 19° ENE 22:13:34 10° NNE
Cosmos 2082 Rocket 2.5 22:07:29 25° SSE 22:10:20 44° ESE 22:15:41 10° NE
PSLV R/B 4.2 22:07:36 10° NW 22:10:31 36° NNE 22:11:10 32° NE
Intercosmos 24 3.5 22:10:18 10° N 22:13:52 68° E 22:14:30 53° SE
Cosmos 2058 Rocket 4.1 22:12:17 10° NNE 22:16:10 29° E 22:16:19 29° E
YAOGAN 6 2.8 22:17:41 42° SSW 22:18:40 63° W 22:22:08 10° NNW
Cosmos 2181 Rocket 4.1 22:16:20 27° SSE 22:19:48 60° E 22:25:59 10° NNE
Meteor 1-15 Rocket 4.1 22:17:03 10° N 22:22:39 83° E 22:25:10 34° SSE
Envisat 4.4 22:20:49 10° SSW 22:25:22 33° W 22:29:57 10° NNW
MOS 1-B Rocket 4.0 22:23:05 36° SE 22:25:26 66° ENE 22:31:41 10° N
Cosmos 2056 Rocket 3.4 22:23:12 10° NNW 22:28:21 70° ENE 22:29:38 49° SE
H-2A R/B 4.3 22:32:00 13° ENE 22:32:00 13° ENE 22:33:49 10° NE
Tiangong 2 4.2 22:32:40 10° NNW 22:34:05 12° N 22:35:29 10° NNE
Cosmos 1697 Rocket 4.0 22:29:56 10° N 22:34:23 24° ENE 22:35:16 23° ENE
Cosmos 2369 4.0 22:31:14 10° N 22:36:50 52° ENE 22:38:00 45° ESE
Cosmos 1656 4.4 22:32:29 10° N 22:37:29 35° ENE 22:38:15 34° E
COSMOS 2487 3.4 22:44:42 42° W 22:45:12 46° WNW 22:48:39 10° N
Cosmos 962 Rocket 4.4 22:39:00 10° N 22:45:14 88° W 22:47:25 43° S
Cosmos 1833 Rocket 2.5 22:42:35 32° SSW 22:45:18 87° ESE 22:50:57 10° NNE
MetOp-A 4.1 22:43:45 48° S 22:45:19 79° WSW 22:50:41 10° NNW
Terra 3.3 22:51:10 24° ENE 22:51:10 24° ENE 22:54:24 10° NNE
Meteor 2-19 Rocket 4.5 22:45:00 10° N 22:51:08 76° W 22:53:21 42° S
Cosmos 1437 Rocket 3.7 22:48:49 10° NNW 22:52:29 41° W 22:52:45 40° WSW
Cosmos 839 Rocket 4.4 22:46:20 10° NNW 22:53:13 77° ENE 22:55:55 46° SE
SPOT 5 2.6 22:58:02 77° WNW 22:58:02 77° WNW 23:02:12 10° NNW
Cosmos 2228 3.2 22:55:50 10° N 22:59:30 64° N 22:59:30 64° N
Cosmos 1452 Rocket 3.8 22:55:05 10° N 23:00:11 53° ENE 23:00:11 53° ENE
SPOT 1/Viking Rocket 3.4 23:01:13 74° E 23:01:24 75° ENE 23:06:34 10° N
Cosmos 921 Rocket 3.2 22:57:26 10° NNW 23:01:36 68° WNW 23:01:36 68° WNW
SL-8 Rocket 3.9 22:56:21 10° N 23:02:38 76° E 23:03:38 63° SE
ERS-1 Rocket 4.2 23:01:27 28° SW 23:03:04 35° W 23:07:39 10° NNW
Cosmos 1066 Rocket 4.1 23:02:27 60° SSW 23:03:28 82° W 23:09:06 10° N
Cosmos 2366 rocket 3.9 23:02:55 10° N 23:08:59 61° E 23:09:15 60° E
Cosmos 1602 Rocket 4.4 23:17:48 46° N 23:17:48 46° N 23:20:52 10° N
USA 142 4.5 23:09:44 10° W 23:18:03 57° SW 23:18:03 57° SW
ARGOS 3.8 23:21:12 44° WSW 23:21:52 46° W 23:27:05 10° NNW
SL-08 RB Rocket 4.5 23:22:30 46° WNW 23:22:30 46° WNW 23:26:19 10° NNW
Cosmos 1980 Rocket 3.1 23:18:06 10° N 23:22:51 35° NE 23:22:51 35° NE
OAO 2 Rocket 4.3 23:25:09 10° WNW 23:28:19 39° W 23:28:19 39° W
Meteor 1-21 4.3 23:31:31 70° NNE 23:31:31 70° NNE 23:36:36 10° N
Cosmos 1959 Rocket 4.5 23:24:59 10° N 23:31:19 75° W 23:31:51 71° SW
Cosmos 2322 Rocket 4.3 23:30:54 10° NNE 23:34:10 15° ENE 23:34:13 15° ENE
Cosmos 158 Rocket 4.5 23:42:21 59° NW 23:42:21 59° NW 23:47:07 10° N
USA 229 DEB 4.2 23:35:27 10° NNW 23:42:23 49° NE 23:43:05 47° ENE
USA 229 4.2 23:35:34 10° NNW 23:42:29 48° NE 23:43:12 47° ENE
Meteor 2-14 Rocket 4.4 23:37:11 10° N 23:42:51 79° N 23:42:51 79° N
H-2A R/B 3.2 23:49:51 35° W 23:49:51 35° W 23:53:49 10° NNW
Cosmos 2218 Rocket 4.5 23:45:01 10° NNW 23:50:55 49° W 23:51:17 49° WSW
Cosmos 2082 Rocket 4.4 23:50:20 10° WSW 23:54:34 21° WNW 23:58:48 10° NNW
